Ostrava, Czech Republic

12:29 AM CEST on September 27, 2016 (GMT +0200)
Mosnov

Weather History for LKMT - March, 2013

Change the Weather History Date:

Tuesday, March 5, 2013

  Actual Average (EPKT) Record (EPKT)
Temperature  
Mean Temperature 38 °F -  
Max Temperature 52 °F 38 °F 57 °F (1999)
Min Temperature 24 °F 23 °F 1 °F (2004)
Degree Days  
Heating Degree Days 27    
Moisture  
Dew Point 23 °F    
Average Humidity 53    
Maximum Humidity 86    
Minimum Humidity 21    
Precipitation  
Precipitation 0.00 in - - ()
Sea Level Pressure  
Sea Level Pressure 30.11 in    
Wind  
Wind Speed 10 mph ()    
Max Wind Speed 20 mph    
Max Gust Speed -    
Visibility 15.7 miles    
Events      
Averages and records for this station are not official NWS values.
T = Trace of Precipitation, MM = Missing Value Source: Averaged Metar Reports

Daily Weather History Graph

Daily Weather History Graph

Search for Another Location

Airport or City:

Trip Planner

Search our weather history database for the weather conditions in past years. The results will help you decide how hot, cold, wet, or windy it might be!

Date:

Astronomy

Mar. 05, 2013 Rise Set
Actual Time 6:22 AM CET 5:36 PM CET
Civil Twilight 5:50 AM CET 6:08 PM CET
Nautical Twilight 5:13 AM CET 6:45 PM CET
Astronomical Twilight 4:35 AM CET 7:23 PM CET
Moon 1:41 AM CET (3/5) 10:32 AM CET (3/5)
Length of Visible Light 12h 18m
Length of Day
11h 14m
Last Quarter, 44% of the Moon is Illuminated
Mar 5
Last Quarter
Mar 11
New
Mar 19
First Quarter
Mar 27
Full
Apr 3
Last Quarter

Hourly Weather History & Observations

Time (CET) Temp. Windchill Dew Point Humidity Pressure Visibility Wind Dir Wind Speed Gust Speed Precip Events Conditions
12:00 AM 26.6 °F 20.0 °F 21.2 °F 80% 30.24 in - SW 5.8 mph - N/A   Clear
12:30 AM 28.4 °F 23.3 °F 23.0 °F 80% 30.24 in - SW 4.6 mph - N/A   Clear
1:00 AM 24.8 °F 20.5 °F 21.2 °F 86% 30.24 in - SW 3.5 mph - N/A   Clear
1:30 AM 26.6 °F 21.2 °F 23.0 °F 86% 30.24 in - SW 4.6 mph - N/A   Clear
2:00 AM 24.8 °F 16.9 °F 21.2 °F 86% 30.24 in - WSW 6.9 mph - N/A   Clear
2:30 AM 26.6 °F 18.2 °F 23.0 °F 86% 30.24 in - SW 8.1 mph - N/A   Clear
3:00 AM 28.4 °F 20.4 °F 23.0 °F 80% 30.21 in - WSW 8.1 mph - N/A   Clear
3:30 AM 26.6 °F 16.8 °F 23.0 °F 86% 30.21 in - WSW 10.4 mph - N/A   Clear
4:00 AM 28.4 °F 19.7 °F 23.0 °F 80% 30.21 in - WSW 9.2 mph - N/A   Clear
4:30 AM 28.4 °F 20.4 °F 24.8 °F 86% 30.21 in - WSW 8.1 mph - N/A   Clear
5:00 AM 30.2 °F 20.8 °F 24.8 °F 80% 30.21 in - WSW 11.5 mph - N/A   Clear
5:30 AM 30.2 °F 20.8 °F 24.8 °F 80% 30.18 in - WSW 11.5 mph - N/A   Clear
6:00 AM 30.2 °F 21.3 °F 24.8 °F 80% 30.18 in - WSW 10.4 mph - N/A   Clear
6:30 AM 30.2 °F 20.8 °F 24.8 °F 80% 30.18 in - WSW 11.5 mph - N/A   Clear
7:00 AM 36 °F - 25 °F 54% 30.24 in 16 mi SW 13.4 mph - -  
7:00 AM 35.6 °F 26.6 °F 24.8 °F 65% 30.18 in - SW 13.8 mph - N/A   Clear
7:30 AM 37.4 °F 29.3 °F 26.6 °F 65% 30.18 in - SW 12.7 mph - N/A   Clear
8:00 AM 39.2 °F 31.6 °F 26.6 °F 61% 30.18 in - SSW 12.7 mph - N/A   Clear
8:30 AM 41.0 °F 33.1 °F 26.6 °F 57% 30.18 in - SSW 15.0 mph - N/A   Clear
9:00 AM 42.8 °F 35.4 °F 26.6 °F 53% 30.15 in - SSW 15.0 mph - N/A   Clear
9:30 AM 44.6 °F 37.2 °F 24.8 °F 46% 30.15 in - SSW 17.3 mph - N/A   Clear
10:00 AM 44.6 °F 36.9 °F 23.0 °F 43% 30.15 in - SSW 18.4 mph - N/A   Clear
10:30 AM 46.4 °F 40.1 °F 23.0 °F 40% 30.15 in - South 15.0 mph - N/A   Clear
11:00 AM 46.4 °F 39.5 °F 23.0 °F 40% 30.15 in - SSW 17.3 mph - N/A   Clear
11:30 AM 48.2 °F - 24.8 °F 40% 30.12 in - SSW 15.0 mph - N/A   Clear
12:00 PM 50.0 °F - 23.0 °F 35% 30.12 in - SSW 19.6 mph - N/A   Clear
12:30 PM 50.0 °F - 24.8 °F 37% 30.12 in - SSW 17.3 mph - N/A   Clear
1:00 PM 51 °F - 23 °F 21% 30.12 in 19 mi South 13.4 mph - -  
1:00 PM 51.8 °F - 23.0 °F 33% 30.09 in - South 13.8 mph - N/A   Clear
1:30 PM 51.8 °F - 21.2 °F 30% 30.09 in - South 13.8 mph - N/A   Clear
2:00 PM 51.8 °F - 21.2 °F 30% 30.06 in - South 12.7 mph - N/A   Clear
2:30 PM 51.8 °F - 19.4 °F 28% 30.06 in - SSW 13.8 mph - N/A   Clear
3:00 PM 51.8 °F - 21.2 °F 30% 30.06 in - South 12.7 mph - N/A   Clear
3:30 PM 51.8 °F - 19.4 °F 28% 30.04 in - SSW 11.5 mph - N/A   Clear
4:00 PM 51.8 °F - 21.2 °F 30% 30.04 in - South 11.5 mph - N/A   Clear
4:30 PM 50.0 °F - 21.2 °F 32% 30.04 in - SSW 15.0 mph - N/A   Clear
5:00 PM 48.2 °F - 21.2 °F 34% 30.04 in - SSW 13.8 mph - N/A   Clear
5:30 PM 46.4 °F 40.1 °F 21.2 °F 37% 30.01 in - SSW 15.0 mph - N/A   Clear
6:00 PM 46.4 °F 40.7 °F 21.2 °F 37% 30.01 in - SSW 12.7 mph - N/A   Clear
6:30 PM 44.6 °F 38.4 °F 21.2 °F 39% 30.01 in - SSW 12.7 mph - N/A   Clear
7:00 PM 40 °F - 22 °F 35% 30.05 in 12 mi SW 8.9 mph - -  
7:00 PM 39.2 °F 33.6 °F 23.0 °F 52% 30.01 in - SW 8.1 mph - N/A   Clear
7:30 PM 41.0 °F 34.3 °F 21.2 °F 45% 30.01 in - SW 11.5 mph - N/A   Clear
8:00 PM 39.2 °F 31.6 °F 21.2 °F 49% 30.01 in - SW 12.7 mph - N/A   Clear
8:30 PM 41.0 °F 34.7 °F 19.4 °F 42% 29.98 in - SW 10.4 mph - N/A   Clear
9:00 PM 41.0 °F 34.7 °F 19.4 °F 42% 29.98 in - SW 10.4 mph - N/A   Clear
9:30 PM 42.8 °F 36.6 °F 19.4 °F 39% 29.98 in - SW 11.5 mph - N/A   Clear
10:00 PM 41.0 °F 33.1 °F 21.2 °F 45% 29.98 in - SW 15.0 mph - N/A   Clear
10:30 PM 37.4 °F 29.3 °F 21.2 °F 52% 29.98 in - SW 12.7 mph - N/A   Clear
11:00 PM 39.2 °F 30.8 °F 21.2 °F 49% 29.95 in - SW 15.0 mph - N/A   Clear
11:30 PM 39.2 °F 30.5 °F 23.0 °F 52% 29.95 in - SW 16.1 mph - N/A   Clear